TimeCST,TemperatureF,Dew PointF,Humidity,Sea Level PressureIn,VisibilityMPH,Wind Direction,Wind SpeedMPH,Gust SpeedMPH,PrecipitationIn,Events,Conditions,WindDirDegrees,DateUTC
12:07 AM,28.4,28.4,100,29.75,0.5,WSW,3.5,-,N/A,Fog,Light Freezing Fog,240,2013-01-28 06:07:00
12:49 AM,28.4,26.6,93,29.75,1.2,South,3.5,-,N/A,,Overcast,180,2013-01-28 06:49:00
12:53 AM,28.9,28.0,96,29.80,1.2,Calm,Calm,-,N/A,,Overcast,0,2013-01-28 06:53:00
1:35 AM,28.4,26.6,93,29.75,0.5,Calm,Calm,-,N/A,Fog,Light Freezing Fog,0,2013-01-28 07:35:00
1:53 AM,28.9,26.1,89,29.78,0.5,NNE,3.5,-,N/A,Fog,Light Freezing Fog,30,2013-01-28 07:53:00
2:26 AM,28.4,26.6,93,29.73,0.2,Calm,Calm,-,N/A,Fog,Light Freezing Fog,0,2013-01-28 08:26:00
2:33 AM,28.4,26.6,93,29.76,0.5,WSW,5.8,-,N/A,Fog,Light Freezing Fog,240,2013-01-28 08:33:00
2:53 AM,28.0,27.0,96,29.81,0.5,SW,5.8,-,N/A,Fog,Light Freezing Fog,220,2013-01-28 08:53:00
3:09 AM,28.4,26.6,93,29.78,0.2,SW,5.8,-,N/A,Fog,Light Freezing Fog,230,2013-01-28 09:09:00
3:25 AM,26.6,24.8,93,29.78,0.5,WSW,9.2,-,N/A,Fog,Light Freezing Fog,250,2013-01-28 09:25:00
3:53 AM,27.0,25.0,92,29.82,1.0,West,4.6,-,N/A,,Mist,270,2013-01-28 09:53:00
4:53 AM,27.0,26.1,96,29.82,1.0,Calm,Calm,-,N/A,,Mist,0,2013-01-28 10:53:00
5:00 AM,26.6,24.8,93,29.77,0.8,Calm,Calm,-,N/A,,Mist,0,2013-01-28 11:00:00
5:23 AM,26.6,24.8,93,29.79,1.0,Calm,Calm,-,N/A,,Mist,0,2013-01-28 11:23:00
5:53 AM,27.0,25.0,92,29.83,1.0,West,3.5,-,N/A,,Mist,260,2013-01-28 11:53:00
6:16 AM,26.6,24.8,93,29.77,1.8,SW,3.5,-,N/A,,Overcast,220,2013-01-28 12:16:00
6:27 AM,26.6,24.8,93,29.77,3.0,Calm,Calm,-,N/A,,Overcast,0,2013-01-28 12:27:00
6:53 AM,27.0,24.1,89,29.82,4.0,Calm,Calm,-,N/A,,Overcast,0,2013-01-28 12:53:00
7:39 AM,26.6,24.8,93,29.80,2.0,WSW,8.1,-,N/A,,Overcast,250,2013-01-28 13:39:00
7:43 AM,26.6,23.0,86,29.80,1.2,WSW,6.9,-,N/A,,Overcast,250,2013-01-28 13:43:00
7:53 AM,25.0,23.0,92,29.84,0.5,West,4.6,-,N/A,Fog,Light Freezing Fog,280,2013-01-28 13:53:00
8:16 AM,24.8,23.0,93,29.81,0.2,West,6.9,-,N/A,Fog,Light Freezing Fog,270,2013-01-28 14:16:00
8:53 AM,24.1,21.9,91,29.85,0.2,Calm,Calm,-,N/A,Fog,Light Freezing Fog,0,2013-01-28 14:53:00
9:26 AM,24.8,21.2,86,29.82,0.5,SW,5.8,-,N/A,Fog,Light Freezing Fog,230,2013-01-28 15:26:00
9:42 AM,24.8,21.2,86,29.80,0.5,Variable,3.5,-,N/A,Fog,Light Freezing Fog,0,2013-01-28 15:42:00
9:53 AM,24.1,21.0,88,29.88,1.8,WSW,8.1,-,0.00,,Mist,250,2013-01-28 15:53:00
10:00 AM,24.8,21.2,86,29.82,2.5,Calm,Calm,-,N/A,,Mist,0,2013-01-28 16:00:00
10:06 AM,24.8,21.2,86,29.82,3.0,WSW,3.5,-,N/A,,Overcast,250,2013-01-28 16:06:00
10:48 AM,24.8,21.2,86,29.81,5.0,Calm,Calm,-,0.01,,Overcast,0,2013-01-28 16:48:00
10:53 AM,25.0,21.9,88,29.86,5.0,Calm,Calm,-,0.01,,Overcast,0,2013-01-28 16:53:00
11:39 AM,24.8,21.2,86,29.80,6.0,SSE,4.6,-,N/A,,Overcast,150,2013-01-28 17:39:00
11:53 AM,25.0,23.0,92,29.85,6.0,SSE,5.8,-,N/A,,Overcast,150,2013-01-28 17:53:00
12:31 PM,26.6,21.2,80,29.80,7.0,SW,3.5,-,N/A,,Overcast,230,2013-01-28 18:31:00
12:53 PM,26.1,23.0,88,29.84,3.0,SW,4.6,-,0.00,Snow,Light Snow,230,2013-01-28 18:53:00
1:10 PM,26.6,23.0,86,29.78,1.8,West,4.6,-,0.00,Snow,Light Snow,260,2013-01-28 19:10:00
1:18 PM,26.6,23.0,86,29.78,1.0,WNW,5.8,-,0.00,Snow,Light Snow,290,2013-01-28 19:18:00
1:27 PM,26.6,23.0,86,29.78,2.0,West,5.8,-,0.00,Snow,Light Snow,270,2013-01-28 19:27:00
1:36 PM,26.6,24.8,93,29.77,2.5,NW,8.1,-,0.01,Snow,Light Snow,310,2013-01-28 19:36:00
1:46 PM,26.6,23.0,86,29.78,2.0,NW,10.4,-,0.01,Snow,Light Snow,310,2013-01-28 19:46:00
1:53 PM,26.1,23.0,88,29.82,2.0,NW,10.4,-,0.01,Snow,Light Snow,320,2013-01-28 19:53:00
2:00 PM,26.6,23.0,86,29.76,1.2,NW,10.4,-,0.00,Snow,Light Snow,320,2013-01-28 20:00:00
2:31 PM,26.6,23.0,86,29.76,0.8,NW,9.2,-,0.02,Snow,Light Snow,320,2013-01-28 20:31:00
2:53 PM,26.1,24.1,92,29.83,0.2,NW,3.5,-,0.07,Fog-Snow,Heavy Snow,310,2013-01-28 20:53:00
3:04 PM,26.6,24.8,93,29.77,0.2,North,4.6,-,0.03,Fog-Snow,Snow,360,2013-01-28 21:04:00
3:13 PM,26.6,23.0,86,29.76,1.0,North,4.6,-,0.03,Snow,Light Snow,350,2013-01-28 21:13:00
3:23 PM,26.6,24.8,93,29.77,1.2,North,3.5,-,0.03,Snow,Light Snow,360,2013-01-28 21:23:00
3:31 PM,26.6,24.8,93,29.76,1.8,Calm,Calm,-,0.03,Snow,Light Snow,0,2013-01-28 21:31:00
3:53 PM,26.1,24.1,92,29.82,1.8,Calm,Calm,-,0.04,Snow,Light Snow,0,2013-01-28 21:53:00
4:08 PM,26.6,23.0,86,29.77,2.5,Calm,Calm,-,0.00,,Overcast,0,2013-01-28 22:08:00
4:18 PM,26.6,24.8,93,29.76,2.5,NE,3.5,-,0.00,,Overcast,50,2013-01-28 22:18:00
4:29 PM,26.6,24.8,93,29.76,1.2,Calm,Calm,-,0.00,Snow,Light Snow,0,2013-01-28 22:29:00
4:40 PM,26.6,24.8,93,29.77,0.5,Calm,Calm,-,0.01,Fog-Snow,Snow,0,2013-01-28 22:40:00
4:44 PM,26.6,24.8,93,29.77,0.2,Calm,Calm,-,0.02,Fog-Snow,Snow,0,2013-01-28 22:44:00
4:51 PM,26.6,24.8,93,29.76,0.2,Calm,Calm,-,0.03,Fog-Snow,Heavy Snow,0,2013-01-28 22:51:00
4:53 PM,26.1,24.1,92,29.82,0.2,Calm,Calm,-,0.04,Fog-Snow,Heavy Snow,0,2013-01-28 22:53:00
5:38 PM,26.6,24.8,93,29.76,0.5,NNW,3.5,-,0.07,Fog-Snow,Snow,330,2013-01-28 23:38:00
5:53 PM,26.1,24.1,92,29.81,0.8,NNW,5.8,-,0.09,Snow,Light Snow,340,2013-01-28 23:53:00
6:53 PM,26.1,24.1,92,29.81,0.5,North,5.8,-,0.11,Fog-Snow,Snow,350,2013-01-29 00:53:00
7:42 PM,26.6,24.8,93,29.74,0.8,North,6.9,-,0.09,Snow,Light Snow,360,2013-01-29 01:42:00
7:49 PM,26.6,24.8,93,29.74,1.0,North,8.1,-,0.09,Snow,Light Snow,360,2013-01-29 01:49:00
7:53 PM,27.0,24.1,89,29.80,1.0,North,8.1,-,0.09,Snow,Light Snow,360,2013-01-29 01:53:00
8:27 PM,26.6,24.8,93,29.74,1.2,North,9.2,-,0.02,Snow,Light Snow,10,2013-01-29 02:27:00
8:45 PM,26.6,24.8,93,29.73,0.8,North,9.2,-,0.03,Snow,Light Snow,10,2013-01-29 02:45:00
8:53 PM,27.0,25.0,92,29.78,0.8,North,9.2,-,0.04,Snow,Light Snow,10,2013-01-29 02:53:00
9:43 PM,26.6,24.8,93,29.72,1.0,North,6.9,-,0.05,Snow,Light Snow,360,2013-01-29 03:43:00
9:51 PM,28.4,24.8,86,29.72,1.2,North,8.1,-,0.06,Snow,Light Snow,360,2013-01-29 03:51:00
9:53 PM,28.0,25.0,88,29.78,1.2,North,6.9,-,0.06,Snow,Light Snow,360,2013-01-29 03:53:00
10:27 PM,28.4,24.8,86,29.71,1.2,North,6.9,-,0.02,Snow,Light Snow,350,2013-01-29 04:27:00
10:53 PM,28.0,26.1,92,29.76,1.2,NNW,8.1,-,0.04,Snow,Light Snow,340,2013-01-29 04:53:00
11:02 PM,28.4,26.6,93,29.71,1.5,NNW,6.9,-,0.00,Snow,Light Snow,330,2013-01-29 05:02:00
11:11 PM,28.4,26.6,93,29.71,1.2,NNW,9.2,-,0.01,Snow,Light Snow,330,2013-01-29 05:11:00
11:53 PM,28.9,26.1,89,29.76,1.0,NNW,10.4,-,0.04,Snow,Light Snow,330,2013-01-29 05:53:00